Marshalltown, IA

5:13 AM CST on November 21, 2017 (GMT -0600)
Marshalltown Municipal

Weather History for KMIW - March, 2013

Change the Weather History Date:

Sunday, March 24, 2013

  Actual Average Record
Temperature  
Mean Temperature 30 °F 40 °F  
Max Temperature 31 °F 51 °F 75 °F (2004)
Min Temperature 28 °F 30 °F 16 °F (2001)
Degree Days  
Heating Degree Days 35 25  
Month to date heating degree days 945 732  
Since 1 July heating degree days 5949 6135  
Cooling Degree Days 0 0  
Month to date cooling degree days 0 0  
Year to date cooling degree days 0 0  
Moisture  
Dew Point 27 °F    
Average Humidity 85    
Maximum Humidity 92    
Minimum Humidity 78    
Precipitation  
Precipitation T in 0.07 in 0.49 in (2005)
Month to date precipitation 1.53 1.37  
Sea Level Pressure  
Sea Level Pressure 29.92 in    
Wind  
Wind Speed 16 mph (North)    
Max Wind Speed 22 mph    
Max Gust Speed 26 mph    
Visibility 3 miles    
Events Snow    
T = Trace of Precipitation, MM = Missing Value Source: NWS Daily Summary

Daily Weather History Graph

Daily Weather History Graph

Search for Another Location

Airport or City:

Trip Planner

Search our weather history database for the weather conditions in past years. The results will help you decide how hot, cold, wet, or windy it might be!

Date:

Astronomy

Mar. 24, 2013 Rise Set
Actual Time 7:07 AM CDT 7:28 PM CDT
Civil Twilight 6:39 AM CDT 7:56 PM CDT
Nautical Twilight 6:06 AM CDT 8:29 PM CDT
Astronomical Twilight 5:33 AM CDT 9:03 PM CDT
Moon 4:55 PM CDT (3/24) 5:20 AM CDT (3/24)
Length of Visible Light 13h 17m
Length of Day
12h 21m
Waxing Gibbous, 92% of the Moon is Illuminated
Mar 24
Waxing Gibbous
Mar 27
Full
Apr 2
Last Quarter
Apr 10
New
Apr 18
First Quarter

Hourly Weather History & Observations

Time (CDT) Temp. Windchill Dew Point Humidity Pressure Visibility Wind Dir Wind Speed Gust Speed Precip Events Conditions
12:10 AM 30.2 °F 19.8 °F 26.6 °F 86% 30.03 in 3.0 mi NNE 13.8 mph - 0.00 in Snow Light Snow
12:25 AM 30.2 °F 20.8 °F 26.6 °F 86% 30.03 in 3.0 mi NNE 11.5 mph - 0.00 in Snow Light Snow
12:53 AM 30.0 °F 20.5 °F 27.0 °F 88% 30.05 in 3.0 mi NNE 11.5 mph - 0.00 in Snow Light Snow
1:53 AM 28.9 °F 20.4 °F 27.0 °F 92% 30.05 in 4.0 mi North 9.2 mph - 0.00 in Snow Light Snow
2:53 AM 30.0 °F 21.7 °F 27.0 °F 88% 30.02 in 4.0 mi North 9.2 mph - 0.00 in Snow Light Snow
3:53 AM 28.9 °F 19.8 °F 25.0 °F 85% 30.00 in 6.0 mi NNW 10.4 mph - 0.00 in   Overcast
4:53 AM 28.0 °F 16.1 °F 25.0 °F 88% 29.98 in 3.0 mi North 16.1 mph - 0.00 in Snow Light Snow
5:53 AM 28.0 °F 18.1 °F 25.0 °F 88% 29.98 in 6.0 mi North 11.5 mph - 0.00 in   Overcast
6:53 AM 28.0 °F 17.0 °F 25.0 °F 88% 29.97 in 8.0 mi North 13.8 mph - N/A   Overcast
7:53 AM 28.0 °F 16.5 °F 25.0 °F 88% 29.96 in 9.0 mi North 15.0 mph - N/A   Overcast
8:18 AM 28.4 °F 17.0 °F 24.8 °F 86% 29.92 in 2.0 mi North 15.0 mph - 0.00 in Snow Light Snow
8:31 AM 28.4 °F 17.0 °F 24.8 °F 86% 29.91 in 1.8 mi North 15.0 mph - 0.00 in Snow Light Snow
8:35 AM 28.4 °F 17.0 °F 24.8 °F 86% 29.92 in 2.0 mi North 15.0 mph - 0.00 in Snow Light Snow
8:49 AM 28.4 °F 17.0 °F 24.8 °F 86% 29.91 in 2.0 mi North 15.0 mph - 0.00 in Snow Light Snow
8:53 AM 28.0 °F 16.1 °F 25.0 °F 88% 29.95 in 1.8 mi North 16.1 mph - 0.00 in Snow Light Snow
9:05 AM 28.4 °F 17.5 °F 26.6 °F 93% 29.91 in 2.0 mi North 13.8 mph - 0.00 in Snow Light Snow
9:36 AM 28.4 °F 16.6 °F 26.6 °F 93% 29.92 in 3.0 mi North 16.1 mph - 0.00 in   Overcast
9:53 AM 28.9 °F 17.7 °F 26.1 °F 89% 29.95 in 4.0 mi North 15.0 mph - 0.00 in   Overcast
10:09 AM 28.4 °F 16.2 °F 26.6 °F 93% 29.92 in 3.0 mi North 17.3 mph - 0.00 in Snow Light Snow
10:16 AM 28.4 °F 16.6 °F 26.6 °F 93% 29.92 in 2.5 mi North 16.1 mph - 0.00 in Snow Light Snow
10:36 AM 28.4 °F 16.6 °F 26.6 °F 93% 29.91 in 1.8 mi North 16.1 mph - 0.00 in Snow Light Snow
10:53 AM 28.9 °F 17.3 °F 27.0 °F 92% 29.95 in 1.2 mi North 16.1 mph - 0.00 in Snow Light Snow
11:07 AM 28.4 °F 16.2 °F 26.6 °F 93% 29.91 in 2.0 mi North 17.3 mph - 0.00 in Snow Light Snow
11:14 AM 28.4 °F 15.8 °F 26.6 °F 93% 29.91 in 3.0 mi North 18.4 mph - 0.00 in Snow Light Snow
11:38 AM 28.4 °F 16.6 °F 26.6 °F 93% 29.90 in 7.0 mi North 16.1 mph - 0.00 in   Overcast
11:50 AM 28.4 °F 17.0 °F 26.6 °F 93% 29.91 in 1.8 mi North 15.0 mph - 0.00 in Snow Light Snow
11:53 AM 28.9 °F 16.9 °F 26.1 °F 89% 29.94 in 1.5 mi North 17.3 mph - 0.00 in Snow Light Snow
12:00 PM 28.4 °F 16.2 °F 24.8 °F 86% 29.90 in 1.8 mi North 17.3 mph - 0.00 in Snow Light Snow
12:06 PM 28.4 °F 17.0 °F 26.6 °F 93% 29.90 in 3.0 mi North 15.0 mph - 0.00 in Snow Light Snow
12:17 PM 30.2 °F 18.9 °F 26.6 °F 86% 29.90 in 5.0 mi North 16.1 mph - 0.00 in   Overcast
12:26 PM 28.4 °F 15.8 °F 26.6 °F 93% 29.90 in 5.0 mi North 18.4 mph - 0.00 in   Overcast
12:35 PM 28.4 °F 16.2 °F 26.6 °F 93% 29.90 in 4.0 mi North 17.3 mph - 0.00 in   Overcast
12:53 PM 30.0 °F 17.5 °F 25.0 °F 82% 29.93 in 3.0 mi North 19.6 mph 26.5 mph 0.00 in   Haze
1:01 PM 30.2 °F 17.1 °F 24.8 °F 80% 29.89 in 4.0 mi North 21.9 mph - N/A   Haze
1:14 PM 30.2 °F 18.1 °F 26.6 °F 86% 29.89 in 2.0 mi North 18.4 mph - 0.00 in Snow Light Snow
1:21 PM 30.2 °F 18.1 °F 26.6 °F 86% 29.89 in 1.8 mi North 18.4 mph - 0.00 in Snow Light Snow
1:31 PM 30.2 °F 17.8 °F 26.6 °F 86% 29.89 in 1.5 mi North 19.6 mph - 0.00 in Snow Light Snow
1:53 PM 30.0 °F 18.7 °F 26.1 °F 85% 29.91 in 1.8 mi North 16.1 mph - 0.00 in Snow Light Snow
2:50 PM 30.2 °F 19.3 °F 26.6 °F 86% 29.86 in 2.0 mi North 15.0 mph - 0.00 in Snow Light Snow
2:53 PM 30.9 °F 19.8 °F 28.0 °F 89% 29.90 in 2.0 mi North 16.1 mph - 0.00 in Snow Light Snow
2:57 PM 30.2 °F 18.1 °F 28.4 °F 93% 29.86 in 1.8 mi North 18.4 mph - 0.00 in Snow Light Snow
3:11 PM 30.2 °F 17.8 °F 28.4 °F 93% 29.86 in 1.8 mi North 19.6 mph - 0.00 in Snow Light Snow
3:30 PM 30.2 °F 19.3 °F 26.6 °F 86% 29.86 in 2.0 mi North 15.0 mph - 0.00 in Snow Light Snow
3:38 PM 30.2 °F 18.1 °F 26.6 °F 86% 29.86 in 2.5 mi NNW 18.4 mph - 0.00 in Snow Light Snow
3:49 PM 30.2 °F 18.1 °F 26.6 °F 86% 29.86 in 3.0 mi North 18.4 mph - 0.00 in   Overcast
3:53 PM 30.0 °F 17.5 °F 27.0 °F 88% 29.89 in 3.0 mi NNW 19.6 mph - 0.00 in   Overcast
4:09 PM 30.2 °F 18.1 °F 26.6 °F 86% 29.86 in 5.0 mi North 18.4 mph 26.5 mph 0.00 in   Overcast
4:42 PM 30.2 °F 18.9 °F 28.4 °F 93% 29.86 in 2.5 mi NNW 16.1 mph - 0.00 in Snow Light Snow
4:53 PM 30.9 °F 18.7 °F 27.0 °F 85% 29.90 in 2.0 mi NNW 19.6 mph 24.2 mph 0.00 in Snow Light Snow
5:16 PM 30.2 °F 19.3 °F 28.4 °F 93% 29.87 in 2.0 mi NNW 15.0 mph - 0.00 in Snow Light Snow
5:19 PM 30.2 °F 18.9 °F 28.4 °F 93% 29.87 in 1.8 mi NNW 16.1 mph - 0.00 in Snow Light Snow
5:42 PM 30.2 °F 19.8 °F 28.4 °F 93% 29.88 in 1.2 mi North 13.8 mph - 0.00 in Snow Light Snow
5:51 PM 30.2 °F 18.9 °F 28.4 °F 93% 29.88 in 1.2 mi NNW 16.1 mph - 0.00 in Snow Light Snow
5:53 PM 30.0 °F 18.7 °F 28.0 °F 92% 29.92 in 1.2 mi NNW 16.1 mph - 0.00 in Snow Light Snow
6:00 PM 30.2 °F 18.1 °F 28.4 °F 93% 29.88 in 1.2 mi NNW 18.4 mph - 0.00 in Snow Light Snow
6:14 PM 30.2 °F 18.9 °F 28.4 °F 93% 29.89 in 1.2 mi NNW 16.1 mph - 0.00 in Snow Light Snow
6:22 PM 30.2 °F 18.5 °F 26.6 °F 86% 29.89 in 1.5 mi North 17.3 mph - 0.00 in Snow Light Snow
6:25 PM 30.2 °F 17.8 °F 26.6 °F 86% 29.89 in 1.8 mi NNW 19.6 mph 25.3 mph 0.00 in Snow Light Snow
6:35 PM 30.2 °F 18.5 °F 26.6 °F 86% 29.89 in 2.0 mi NNW 17.3 mph - 0.00 in Snow Light Snow
6:51 PM 30.2 °F 21.3 °F 28.4 °F 93% 29.90 in 1.5 mi NNW 10.4 mph - 0.00 in Snow Light Snow
6:53 PM 30.0 °F 20.5 °F 28.0 °F 92% 29.94 in 1.5 mi NNW 11.5 mph - 0.00 in Snow Light Snow
6:58 PM 30.2 °F 19.8 °F 28.4 °F 93% 29.90 in 1.5 mi NNW 13.8 mph - 0.00 in Snow Light Snow
7:32 PM 28.4 °F 16.2 °F 26.6 °F 93% 29.92 in 1.5 mi NNW 17.3 mph - 0.00 in Snow Light Snow
7:53 PM 28.9 °F 17.3 °F 27.0 °F 92% 29.95 in 2.0 mi North 16.1 mph - 0.00 in Snow Light Snow
8:06 PM 28.4 °F 16.6 °F 26.6 °F 93% 29.92 in 2.5 mi NNW 16.1 mph - 0.00 in Snow Light Snow
8:16 PM 28.4 °F 16.6 °F 26.6 °F 93% 29.92 in 3.0 mi North 16.1 mph - 0.00 in Snow Light Snow
8:31 PM 28.4 °F 17.5 °F 26.6 °F 93% 29.92 in 2.5 mi NNW 13.8 mph - 0.00 in Snow Light Snow
8:53 PM 28.9 °F 18.2 °F 27.0 °F 92% 29.96 in 3.0 mi NNW 13.8 mph - 0.00 in Snow Light Snow
9:08 PM 28.4 °F 17.0 °F 26.6 °F 93% 29.92 in 2.5 mi NNW 15.0 mph - 0.00 in Snow Light Snow
9:53 PM 28.9 °F 17.7 °F 27.0 °F 92% 29.96 in 2.0 mi NNW 15.0 mph - 0.00 in Snow Light Snow
10:15 PM 28.4 °F 16.6 °F 26.6 °F 93% 29.93 in 2.5 mi North 16.1 mph - 0.00 in Snow Light Snow
10:27 PM 28.4 °F 17.0 °F 26.6 °F 93% 29.93 in 2.5 mi North 15.0 mph - 0.00 in Snow Light Snow
10:53 PM 28.9 °F 17.7 °F 27.0 °F 92% 29.96 in 2.5 mi North 15.0 mph - 0.00 in Snow Light Snow
11:46 PM 28.4 °F 17.5 °F 26.6 °F 93% 29.93 in 2.0 mi NNW 13.8 mph - 0.00 in Snow Light Snow
11:53 PM 28.0 °F 17.0 °F 26.1 °F 92% 29.97 in 2.0 mi North 13.8 mph - 0.00 in Snow Light Snow